[[{"header":{"parameterUnit":"m.s-1","parameterCategory":1,"la1":30.2991,"la2":30.254,"lo1":-89.0895,"lo2":-89.0444,"dy":0.0017,"dx":0.0017,"nx":28,"ny":28,"refTime":"2024-03-09T03:00:00:Z","depth":0,"parameterNumber":2,"parameterNumberName":"U-component_of_WINDS"},"data":[0,0,0,0,0,0,0,0,0,0,0,0,0,0,0,0,0,0,0,0,0,0,0,0,0,0,0,0,0,0,0,0,0,0,0,0,0,0,0,0,0,0,0,0,0,0,0,0,0,0,0,0,0,0,0,0,0,0,2.2427,2.2428,0,2.2463,2.2463,2.2463,2.2448,2.2447,2.2446,2.2445,2.248,2.2481,2.2483,0,0,0,0,0,0,0,0,0,0,0,0,0,2.2345,2.2347,2.2427,2.2428,2.2428,2.2463,2.2463,2.2464,2.2448,2.2447,2.2446,2.2445,2.2479,2.2481,2.2483,0,0,0,0,0,0,0,0,0,0,0,0,0,2.2381,2.2348,2.2427,2.2424,2.2425,2.2463,2.2463,2.2464,2.2448,2.2447,2.2445,2.2444,2.2478,2.2481,2.2483,2.2525,0,0,2.2491,2.2492,0,0,0,0,0,0,0,0,2.2379,2.2384,2.2424,2.2425,2.2425,2.2449,2.2447,2.2484,2.2448,2.2439,2.2445,2.2444,2.2471,2.2474,2.2483,2.2527,2.2529,2.2492,2.2493,2.2494,2.2495,0,0,0,0,0,0,0,2.2376,2.2382,2.2441,2.2425,2.2425,2.2421,2.2425,2.2454,2.2462,2.244,2.2439,2.2443,2.247,2.2481,2.2484,2.2529,2.2491,2.2494,2.2495,2.2496,2.2611,2.2613,0,0,0,0,0,0,2.2374,2.238,2.244,2.2442,2.2398,2.2424,2.2428,2.2443,2.2461,2.2463,2.2444,2.2442,2.2477,2.2481,2.2485,2.2537,2.2494,2.2497,2.2498,2.261,2.2612,2.2613,0,0,0,0,0,0,2.2373,2.238,2.2439,2.2411,2.2418,2.2427,2.2444,2.2444,2.2455,2.2465,2.2466,2.2453,2.2476,2.2481,2.2516,2.2538,2.2498,2.25,2.2608,2.261,2.2612,2.264,0,0,0,0,0,0,2.237,2.2379,2.2395,2.2412,2.242,2.2469,2.2445,2.2446,2.2459,2.2457,2.2474,2.2475,2.2475,2.2512,2.2519,2.254,2.2502,2.2606,2.2609,2.2612,2.2637,2.2642,2.2647,0,0,0,0,0,2.2367,2.2401,2.2396,2.2403,2.244,2.2471,2.2475,2.2475,2.2461,2.2477,2.2484,2.2475,2.2534,2.2516,2.2523,2.2546,2.2605,2.2608,2.2612,2.2634,2.2641,2.2647,0,0,0,0,0,0,2.2385,2.2403,2.2398,2.2437,2.2453,2.2468,2.2488,2.2482,2.2502,2.2499,2.2498,2.2502,2.2538,2.2545,2.2525,2.2588,2.2567,2.2572,2.2582,2.2589,2.2594,2.2592,2.2504,0,0,0,0,0,2.2394,2.2418,2.2431,2.2465,2.2473,2.248,2.2493,2.2492,2.2507,2.2514,2.2523,2.2538,2.2561,2.2575,2.2596,2.2638,2.2642,2.2657,2.2662,2.2667,2.2671,2.2695,2.2702,2.2624,2.2624,2.2624,0,0,2.2412,2.2424,2.2439,2.2469,2.2481,2.2505,2.2485,2.2511,2.253,2.2517,2.2551,2.2559,2.2576,2.2615,2.2632,2.2622,2.2694,2.2671,2.2674,2.2676,2.2699,2.2707,2.2713,2.2627,2.2626,2.2626,0,0,2.2457,2.2469,2.2499,2.2511,2.253,2.2535,2.2542,2.2559,2.2564,2.2598,2.259,2.2611,2.2649,2.2662,2.2674,2.2727,2.2719,2.2734,2.2761,2.2784,2.2791,2.2796,2.2816,2.2823,2.2738,2.2738,2.2738,0,2.2477,2.2514,2.2514,2.2542,2.2556,2.2548,2.2578,2.2591,2.2615,2.2625,2.2613,2.2662,2.2673,2.2715,2.2729,2.2738,2.2747,2.2731,2.279,2.2795,2.28,2.2819,2.2826,2.274,2.2739,2.2739,2.2739,0,2.2538,2.2564,2.2586,2.2611,2.2627,2.2656,2.2662,2.2678,2.2676,2.2682,2.2718,2.2731,2.2755,2.2765,2.2763,2.2808,2.2801,2.279,2.2768,2.281,2.2827,2.2834,2.2742,2.2741,2.2741,2.274,0,0,2.2594,2.2621,2.2629,2.2641,2.2662,2.2682,2.2711,2.2736,2.2751,2.2768,2.2793,2.2826,2.2817,2.283,2.2829,2.285,2.2892,2.2836,2.2837,2.2847,2.2944,2.2953,2.2961,2.2888,2.2889,2.289,2.2943,0,2.2641,2.2693,2.2696,2.2743,2.2767,2.2761,2.2786,2.2802,2.2809,2.2831,2.2837,2.2862,2.2847,2.2855,2.2875,2.2883,2.2912,2.2879,2.2911,2.2912,2.2907,2.297,2.2979,2.3028,2.295,2.2951,2.2952,0,2.2703,2.2724,2.2774,2.2794,2.2804,2.2827,2.2851,2.2872,2.289,2.2893,2.291,2.2906,2.2937,2.2915,2.2957,2.2935,2.2948,2.2954,2.2956,2.2959,2.2934,2.2975,2.3044,2.3052,2.2962,2.2962,2.2961,0,2.274,2.2781,2.2817,2.2827,2.285,2.2867,2.2877,2.2894,2.291,2.293,2.294,2.2964,2.2977,2.2996,2.2999,2.2983,2.3042,2.302,2.3046,2.3046,2.3058,2.3058,2.3131,2.3067,2.3067,2.3066,2.3066,0,2.2793,2.2824,2.2834,2.2856,2.2891,2.2894,2.2928,2.2937,2.2953,2.2977,2.2972,2.2994,2.2998,2.3021,2.3024,2.3059,2.3065,2.3069,2.3069,2.3069,2.3069,2.3078,2.3075,2.3068,2.3068,2.3068,2.3067,0,2.284,2.2848,2.2887,2.2906,2.2912,2.2937,2.2953,2.2975,2.2982,2.3012,2.3019,2.303,2.3057,2.3063,2.3095,2.3097,2.3139,2.3136,2.3133,2.3133,2.3159,2.3157,2.324,2.3252,2.318,2.3181,2.3181,0,2.2873,2.2897,2.292,2.2936,2.2948,2.2974,2.299,2.2994,2.3011,2.3035,2.3053,2.3081,2.3103,2.3147,2.3157,2.3182,2.318,2.3207,2.3183,2.3183,2.3181,2.318,2.3183,2.3212,2.3213,2.3213,2.3214,0,2.2932,2.2935,2.2959,2.2985,2.3005,2.3025,2.3044,2.3058,2.3065,2.3084,2.3113,2.313,2.3164,2.3191,2.3216,2.3227,2.3222,2.3222,2.3229,2.3229,2.3227,2.323,2.3146,2.3219,2.3219,2.3218,2.3218,2.3218,2.2974,2.2996,2.3016,2.3043,2.3058,2.3077,2.3098,2.3109,2.3133,2.3161,2.3162,2.3194,2.3213,2.3247,2.3259,2.3284,2.3275,2.3285,2.3288,2.3291,2.3294,2.3223,2.3288,2.3288,2.3288,2.3288,2.3288,0,2.3033,2.3046,2.3071,2.3099,2.3121,2.3115,2.3137,2.3155,2.3184,2.3202,2.3224,2.3258,2.3285,2.3298,2.3325,2.3342,2.3341,2.3349,2.3348,2.3351,2.3299,2.3291,2.335,2.335,2.335,2.335,2.335,2.335,2.3066,2.3103,2.3109,2.3154,2.3167,2.3198,2.3211,2.3229,2.3244,2.3282,2.3305,2.3314,2.3331,2.3359,2.3383,2.3387,2.3397,2.3407,2.3409,2.3361,2.3354,2.3348,2.334,2.3409,2.3409,2.3458,2.3459,2.3459]},{"header":{"parameterUnit":"m.s-1","parameterCategory":1,"la1":30.2991,"la2":30.254,"lo1":-89.0895,"lo2":-89.0444,"dy":0.0017,"dx":0.0017,"nx":28,"ny":28,"refTime":"2024-03-09T03:00:00:Z","depth":0,"parameterNumber":3,"parameterNumberName":"V-component_of_WINDS"},"data":[0,0,0,0,0,0,0,0,0,0,0,0,0,0,0,0,0,0,0,0,0,0,0,0,0,0,0,0,0,0,0,0,0,0,0,0,0,0,0,0,0,0,0,0,0,0,0,0,0,0,0,0,0,0,0,0,0,0,-4.731,-4.7312,0,-4.744,-4.7441,-4.7443,-4.7462,-4.7461,-4.746,-4.7459,-4.7585,-4.7589,-4.7594,0,0,0,0,0,0,0,0,0,0,0,0,0,-4.7077,-4.7082,-4.731,-4.7312,-4.7314,-4.7439,-4.7441,-4.7443,-4.7463,-4.7461,-4.746,-4.7458,-4.7583,-4.7589,-4.7594,0,0,0,0,0,0,0,0,0,0,0,0,0,-4.719,-4.7083,-4.731,-4.7339,-4.7343,-4.7439,-4.7441,-4.7443,-4.7463,-4.7461,-4.7459,-4.7458,-4.7582,-4.7588,-4.7595,-4.767,0,0,-4.7615,-4.7618,0,0,0,0,0,0,0,0,-4.7183,-4.7198,-4.7333,-4.7337,-4.7341,-4.7433,-4.7405,-4.7519,-4.7463,-4.7417,-4.7459,-4.7457,-4.7535,-4.7546,-4.7574,-4.7676,-4.7681,-4.7616,-4.762,-4.7622,-4.7624,0,0,0,0,0,0,0,-4.7175,-4.7193,-4.7361,-4.7335,-4.734,-4.7344,-4.7358,-4.7427,-4.7484,-4.7421,-4.7423,-4.7438,-4.7537,-4.7567,-4.7577,-4.7683,-4.7615,-4.7621,-4.7625,-4.7628,-4.7856,-4.7858,0,0,0,0,0,0,-4.7163,-4.7186,-4.7357,-4.7365,-4.7257,-4.735,-4.7365,-4.7405,-4.7483,-4.7494,-4.7439,-4.7438,-4.7557,-4.7569,-4.7581,-4.7676,-4.7622,-4.7629,-4.7632,-4.7854,-4.7857,-4.7859,0,0,0,0,0,0,-4.7158,-4.7178,-4.7352,-4.7276,-4.7299,-4.7356,-4.74,-4.7409,-4.7439,-4.7497,-4.7507,-4.746,-4.7556,-4.7572,-4.7649,-4.7681,-4.7632,-4.7638,-4.7852,-4.7855,-4.7858,-4.7866,0,0,0,0,0,0,-4.7151,-4.7176,-4.7206,-4.7277,-4.7303,-4.7418,-4.7402,-4.7413,-4.7451,-4.7451,-4.7519,-4.7528,-4.7556,-4.7639,-4.7655,-4.7689,-4.7643,-4.7849,-4.7853,-4.7857,-4.7863,-4.7869,-4.7874,0,0,0,0,0,-4.7143,-4.7201,-4.7207,-4.7228,-4.7341,-4.742,-4.7435,-4.7467,-4.7453,-4.7483,-4.7522,-4.7526,-4.7675,-4.7647,-4.7665,-4.7701,-4.7847,-4.7852,-4.7857,-4.786,-4.7868,-4.7874,0,0,0,0,0,0,-4.7128,-4.721,-4.7218,-4.7301,-4.7354,-4.7423,-4.7462,-4.7473,-4.7529,-4.7526,-4.7562,-4.7577,-4.7653,-4.7685,-4.7652,-4.778,-4.776,-4.7768,-4.7756,-4.7764,-4.7769,-4.776,-4.7648,0,0,0,0,0,-4.7136,-4.7195,-4.7262,-4.7328,-4.7355,-4.7404,-4.744,-4.7461,-4.7516,-4.7537,-4.7581,-4.7633,-4.7692,-4.7729,-4.7786,-4.7868,-4.7884,-4.7902,-4.7908,-4.7912,-4.7919,-4.7967,-4.7977,-4.7875,-4.7874,-4.7874,0,0,-4.7149,-4.7201,-4.7236,-4.7327,-4.737,-4.743,-4.7422,-4.7485,-4.753,-4.7546,-4.7623,-4.7657,-4.7717,-4.7798,-4.7835,-4.7827,-4.7951,-4.7918,-4.7921,-4.7926,-4.7973,-4.7983,-4.7991,-4.7878,-4.7877,-4.7877,0,0,-4.7206,-4.7251,-4.7313,-4.7357,-4.7425,-4.7458,-4.7473,-4.7542,-4.7566,-4.7644,-4.7659,-4.7712,-4.7811,-4.7855,-4.789,-4.7968,-4.7974,-4.7985,-4.8013,-4.806,-4.8068,-4.8075,-4.8104,-4.8114,-4.7992,-4.7992,-4.7992,0,-4.7214,-4.7306,-4.7342,-4.7406,-4.7446,-4.7468,-4.7531,-4.7572,-4.7653,-4.768,-4.767,-4.7799,-4.784,-4.7933,-4.7952,-4.7979,-4.7998,-4.7977,-4.8064,-4.8072,-4.8079,-4.8108,-4.8118,-4.7993,-4.7993,-4.7993,-4.7992,0,-4.7314,-4.7378,-4.7419,-4.7501,-4.7546,-4.7609,-4.7655,-4.7696,-4.7714,-4.7748,-4.7828,-4.788,-4.7949,-4.7973,-4.7988,-4.8068,-4.8061,-4.8057,-4.8038,-4.8089,-4.8117,-4.8128,-4.7994,-4.7994,-4.7993,-4.7993,0,0,-4.7361,-4.7467,-4.7481,-4.752,-4.7598,-4.7647,-4.7712,-4.7783,-4.7818,-4.7874,-4.793,-4.8016,-4.8014,-4.8054,-4.8076,-4.8116,-4.8177,-4.8108,-4.811,-4.812,-4.827,-4.8273,-4.8285,-4.8183,-4.8185,-4.8187,-4.8266,0,-4.7428,-4.7546,-4.7583,-4.7681,-4.7742,-4.7765,-4.7821,-4.7874,-4.7909,-4.7964,-4.8001,-4.8063,-4.8055,-4.808,-4.8121,-4.8161,-4.8208,-4.8156,-4.8234,-4.8237,-4.8219,-4.8299,-4.8302,-4.8374,-4.8276,-4.8278,-4.828,0,-4.752,-4.7582,-4.7688,-4.7762,-4.7788,-4.7839,-4.7908,-4.7961,-4.8023,-4.8045,-4.8092,-4.8112,-4.818,-4.8158,-4.8252,-4.8216,-4.8251,-4.8276,-4.8279,-4.8288,-4.8261,-4.8311,-4.8397,-4.8408,-4.8296,-4.8295,-4.8294,0,-4.7547,-4.7656,-4.7735,-4.7767,-4.7854,-4.789,-4.7927,-4.7988,-4.8029,-4.809,-4.8117,-4.8183,-4.822,-4.8271,-4.8308,-4.8288,-4.84,-4.838,-4.842,-4.842,-4.8443,-4.8441,-4.8537,-4.8464,-4.8464,-4.8463,-4.8463,0,-4.7617,-4.7681,-4.7748,-4.7796,-4.7869,-4.7911,-4.7981,-4.802,-4.8074,-4.813,-4.8153,-4.8204,-4.825,-4.8307,-4.8336,-4.8412,-4.8427,-4.8447,-4.8454,-4.8446,-4.8444,-4.8469,-4.8465,-4.8466,-4.8466,-4.8465,-4.8465,0,-4.7658,-4.7706,-4.7793,-4.7871,-4.7892,-4.7942,-4.8008,-4.8055,-4.8092,-4.8163,-4.8181,-4.8238,-4.8308,-4.835,-4.8437,-4.8457,-4.854,-4.8545,-4.852,-4.8524,-4.8562,-4.8558,-4.8678,-4.8697,-4.861,-4.8611,-4.8612,0,-4.77,-4.7751,-4.7835,-4.7876,-4.7915,-4.7979,-4.8023,-4.8067,-4.8111,-4.8188,-4.8226,-4.8298,-4.8358,-4.8467,-4.8515,-4.8583,-4.859,-4.8627,-4.8599,-4.859,-4.8592,-4.8589,-4.8595,-4.8631,-4.8632,-4.8633,-4.8633,0,-4.777,-4.7792,-4.7856,-4.7929,-4.7982,-4.8041,-4.8099,-4.813,-4.8184,-4.8233,-4.8306,-4.8353,-4.8444,-4.8515,-4.8588,-4.8625,-4.8638,-4.8642,-4.8655,-4.8647,-4.8631,-4.8642,-4.8534,-4.8639,-4.8638,-4.8638,-4.8637,-4.8637,-4.7814,-4.7861,-4.7929,-4.8,-4.805,-4.8105,-4.8155,-4.82,-4.8263,-4.8342,-4.8364,-4.8441,-4.8504,-4.8603,-4.8643,-4.8703,-4.8697,-4.8716,-4.8721,-4.8725,-4.8727,-4.8622,-4.8716,-4.8716,-4.8716,-4.8716,-4.8716,0,-4.7886,-4.7932,-4.7998,-4.8081,-4.8137,-4.8149,-4.8215,-4.8261,-4.8329,-4.8388,-4.8448,-4.8533,-4.8604,-4.8659,-4.8731,-4.8769,-4.8777,-4.8786,-4.8784,-4.8793,-4.8727,-4.8709,-4.8779,-4.8779,-4.8779,-4.8779,-4.8779,-4.8779,-4.793,-4.8012,-4.8043,-4.815,-4.8196,-4.8274,-4.8311,-4.8362,-4.841,-4.8506,-4.8566,-4.8603,-4.8661,-4.8738,-4.8803,-4.8817,-4.8843,-4.8852,-4.8867,-4.8804,-4.8797,-4.8791,-4.8774,-4.8857,-4.8857,-4.8929,-4.893,-4.893]}]]